Location: Utrecht
(52.0917°N, 5.1178°E)
Time: 20:46:00
(UTC+01:00)

Envisat - Visible Passes

Search period start: 17 December 2017 00:00
Search period end: 27 December 2017 00:00
Orbit: 764 x 766 km, 98.2° (Epoch: 17 December)

Date Brightness Start Highest point End Pass type
(mag) Time Alt. Az. Time Alt. Az. Time Alt. Az.
17 Dec 5.8 07:45:30 10° NE 07:48:12 14° E 07:50:54 10° ESE visible
17 Dec 5.0 19:12:54 15° N 19:12:54 15° N 19:13:57 10° N visible
17 Dec 5.8 20:53:07 10° NNW 20:53:07 10° NNW 20:53:12 10° NNW visible
18 Dec 4.9 18:35:44 13° NNE 18:35:44 13° NNE 18:36:37 10° N visible
18 Dec 5.4 20:15:56 14° NNW 20:15:56 14° NNW 20:16:36 10° NNW visible
19 Dec 5.0 19:38:45 16° N 19:38:45 16° N 19:39:46 10° N visible
20 Dec 6.0 07:35:13 10° ENE 07:36:54 11° E 07:38:35 10° ESE visible
20 Dec 4.9 19:01:34 15° N 19:01:34 15° N 19:02:41 10° N visible
20 Dec 5.6 20:41:46 12° NNW 20:41:46 12° NNW 20:42:09 10° NNW visible
21 Dec 4.9 18:24:23 13° NNE 18:24:23 13° NNE 18:25:12 10° NNE visible
21 Dec 5.2 20:04:35 15° NNW 20:04:35 15° NNW 20:05:29 10° NNW visible
22 Dec 5.7 07:59:20 10° NE 08:02:54 19° E 08:06:27 10° SE visible
22 Dec 4.9 19:27:23 17° N 19:27:23 17° N 19:28:34 10° N visible
23 Dec 4.8 18:50:11 15° NNE 18:50:11 15° NNE 18:51:23 10° N visible
23 Dec 5.4 20:30:23 14° NNW 20:30:23 14° NNW 20:31:04 10° NNW visible
24 Dec 4.9 18:12:59 12° NNE 18:12:59 12° NNE 18:13:43 10° NNE visible
24 Dec 5.0 19:53:11 17° N 19:53:11 17° N 19:54:19 10° N visible
25 Dec 5.8 07:48:38 10° NE 07:51:37 15° E 07:54:36 10° ESE visible
25 Dec 4.8 19:15:57 18° N 19:15:57 18° N 19:17:20 10° N visible
25 Dec 5.7 20:56:10 12° NNW 20:56:10 12° NNW 20:56:30 10° NNW visible
26 Dec 4.8 18:38:45 15° NNE 18:38:45 15° NNE 18:40:03 10° N visible
26 Dec 5.2 20:18:56 16° NNW 20:18:56 16° NNW 20:19:58 10° NNW visible
